Date,TemperatureHighF,TemperatureAvgF,TemperatureLowF,DewpointHighF,DewpointAvgF,DewpointLowF,HumidityHigh,HumidityAvg,HumidityLow,PressureMaxIn,PressureMinIn,WindSpeedMaxMPH,WindSpeedAvgMPH,GustSpeedMaxMPH,PrecipitationSumIn
2013-1-1,17.5,11.5,5.8,11.0,5.6,1.8,84,77,66,30.32,30.19,6,3,11,0.00
2013-1-2,29.7,18.4,5.1,22.2,12.6,1.8,88,78,59,30.27,30.11,11,5,18,0.00
2013-1-3,27.3,22.3,11.4,24.7,18.0,7.8,92,83,67,30.34,30.14,6,4,12,0.00
2013-1-4,33.5,21.3,10.1,24.6,16.7,7.0,91,83,68,30.32,30.20,11,6,22,0.00
2013-1-5,34.8,28.6,18.9,33.0,26.1,16.7,95,90,79,30.27,29.95,12,6,20,0.06
2013-1-6,33.9,21.8,12.9,31.8,18.2,10.5,92,86,77,30.36,29.94,10,3,16,0.00
2013-1-7,39.8,28.3,12.7,28.3,22.3,10.4,92,79,57,30.35,30.11,15,7,27,0.00
2013-1-8,44.2,34.9,27.0,33.6,29.0,24.0,91,79,65,30.16,30.02,10,6,20,0.00
2013-1-9,44.6,34.7,23.3,34.5,28.6,20.8,91,79,58,30.52,30.02,11,4,16,0.00
2013-1-10,44.0,32.8,21.9,38.7,28.0,19.6,96,84,53,30.52,29.85,7,3,15,0.77
2013-1-11,51.7,46.5,39.7,48.2,44.8,38.7,97,94,87,29.85,29.64,12,6,24,0.29
2013-1-12,50.9,35.7,22.2,47.1,31.2,19.9,91,84,77,30.03,29.66,11,6,19,0.00
2013-1-13,22.2,16.8,9.0,20.0,11.9,4.8,91,81,73,30.32,29.92,7,3,14,0.00
2013-1-14,24.8,12.5,4.9,13.2,7.2,2.0,89,80,59,30.52,30.31,3,1,7,0.02
2013-1-15,27.9,15.3,5.2,17.6,10.1,2.4,92,81,57,30.49,30.18,6,1,11,0.03
2013-1-16,33.8,24.4,8.4,31.0,19.3,5.8,93,81,67,30.17,29.88,13,5,21,0.00
2013-1-17,32.9,24.7,15.9,30.6,17.1,11.7,93,73,56,30.44,30.12,8,3,15,0.00
2013-1-18,43.5,31.5,16.1,34.4,25.5,13.2,90,79,69,30.46,29.93,17,8,23,0.01
2013-1-19,48.2,38.3,21.6,38.0,31.2,11.3,83,76,53,30.05,29.75,11,7,27,0.00
2013-1-20,21.5,14.5,9.9,11.8,5.4,2.8,78,67,56,30.37,30.06,7,3,16,0.00
2013-1-21,11.9,6.7,3.0,7.4,-1.8,-5.5,84,68,52,30.36,30.22,6,3,14,0.00
2013-1-22,12.9,5.9,-2.9,0.6,-3.3,-9.1,77,66,54,30.47,30.35,6,2,13,0.00
2013-1-23,21.9,14.3,8.5,13.2,7.0,0.2,83,73,62,30.46,30.17,14,4,24,0.00
2013-1-24,19.8,11.4,1.8,10.4,2.6,-4.5,75,68,55,30.71,30.36,7,3,14,0.00
2013-1-25,33.2,21.9,14.8,21.6,14.6,7.4,89,74,59,30.37,30.00,9,4,17,0.02
2013-1-26,27.3,18.4,6.4,16.1,10.2,2.5,87,71,53,30.45,30.25,5,2,12,0.00
2013-1-27,38.3,29.6,23.8,37.3,25.0,14.4,96,83,66,30.37,29.86,8,4,16,0.07
2013-1-28,49.8,42.2,38.4,49.0,40.8,37.4,97,95,87,29.97,29.73,11,4,17,0.13
2013-1-29,60.6,52.6,37.6,58.4,51.3,36.3,97,95,88,29.73,29.39,11,5,21,0.90
2013-1-30,37.5,29.2,16.3,36.2,27.3,11.2,96,92,80,29.73,29.26,11,5,21,0.45
2013-1-31,16.6,9.8,0.6,13.0,4.8,-4.6,86,80,74,30.29,29.73,15,5,23,0.00
2013-2-1,14.3,4.3,-3.6,11.7,-1.6,-8.6,89,76,64,30.45,30.23,9,4,15,0.00
2013-2-2,22.6,13.5,6.4,20.9,9.0,2.0,93,82,73,30.20,30.06,11,3,11,0.00
2013-2-3,22.7,18.3,10.8,17.1,13.6,7.2,93,82,70,30.12,30.00,10,3,13,0.02
2013-2-4,24.0,19.7,7.7,21.1,15.7,4.2,90,84,79,30.03,29.87,11,3,13,0.00
2013-2-5,30.6,26.1,8.9,27.8,22.4,5.2,90,86,79,30.14,29.85,11,4,21,0.01
2013-2-6,39.4,30.1,15.9,32.6,25.0,12.7,91,81,72,30.24,30.07,9,3,17,0.01
2013-2-7,34.7,32.7,27.1,32.9,31.1,25.1,96,94,87,30.09,29.89,10,3,17,0.48
2013-2-8,27.0,22.2,14.4,24.7,18.8,12.0,93,87,79,30.43,30.06,10,4,17,0.04
2013-2-9,32.0,26.9,19.0,28.4,24.0,17.3,93,89,83,30.43,30.07,10,4,17,0.01
2013-2-10,46.0,38.6,25.8,44.4,36.4,24.1,96,92,75,30.08,29.45,14,7,22,0.37
2013-2-11,38.8,31.0,25.3,33.3,25.2,20.2,83,79,74,30.10,29.52,18,9,32,0.00
2013-2-12,32.8,26.6,23.7,24.8,21.9,19.8,92,82,71,30.14,29.93,5,3,13,0.00
2013-2-13,42.4,32.3,21.3,34.4,28.3,19.6,95,85,70,29.93,29.73,6,2,11,0.00
2013-2-14,41.0,35.3,30.4,32.4,29.9,25.8,91,81,61,30.01,29.65,9,4,14,0.00
2013-2-15,31.7,25.1,16.2,28.5,16.4,8.7,91,70,49,30.26,30.01,10,5,16,0.00
2013-2-16,21.6,15.5,9.8,11.5,8.0,4.8,83,72,62,30.26,30.18,8,3,17,0.00
2013-2-17,31.7,20.8,5.9,22.7,13.2,2.9,91,73,56,30.25,29.95,10,4,18,0.00
2013-2-18,53.1,36.5,21.0,43.5,30.8,17.8,94,80,66,29.95,29.47,13,7,21,0.32
2013-2-19,20.9,12.0,6.0,17.6,7.2,0.9,87,80,76,30.32,29.68,16,4,24,0.00
2013-2-20,20.0,10.6,3.2,13.3,5.2,-1.7,89,79,71,30.47,30.31,5,2,11,0.01
2013-2-21,27.1,19.8,8.9,24.4,16.7,5.8,93,88,84,30.44,29.96,10,4,17,0.00
2013-2-22,32.3,26.6,23.3,30.2,24.4,21.3,94,91,86,29.97,29.82,9,5,15,0.14
2013-2-23,28.8,22.4,10.4,21.8,18.1,7.6,91,83,74,30.02,29.94,6,4,14,0.07
2013-2-24,35.6,20.7,4.9,23.7,15.1,2.0,92,80,57,30.18,30.02,5,1,10,0.08
2013-2-25,39.2,29.6,16.9,29.5,24.0,14.5,93,80,64,30.19,29.96,5,2,10,0.00
2013-2-26,34.8,32.3,30.3,30.3,28.8,27.4,95,87,75,29.96,29.56,12,8,22,0.04
2013-2-27,32.1,30.4,28.4,30.1,28.7,26.5,95,93,91,29.80,29.60,9,6,17,0.24
2013-2-28,33.9,31.9,27.1,30.0,28.4,23.2,94,87,79,30.12,29.80,10,5,15,0.18
2013-3-1,27.1,24.3,21.5,23.4,19.7,16.3,89,82,76,30.28,30.11,9,6,17,0.00
2013-3-2,25.4,17.0,5.3,16.3,11.1,2.0,87,78,65,30.29,30.22,8,3,12,0.00
2013-3-3,31.7,16.9,0.6,15.7,8.0,-2.6,90,70,40,30.23,30.13,3,1,5,0.00
2013-3-4,31.1,25.7,16.3,25.1,20.0,9.6,87,79,72,30.16,29.98,10,5,18,0.01
2013-3-5,32.7,29.5,24.8,30.8,27.4,22.5,94,92,81,30.11,29.84,11,4,16,0.29
2013-3-6,30.3,26.6,21.1,26.0,23.2,18.6,91,87,82,30.36,30.11,9,4,13,0.12
2013-3-7,33.7,26.8,17.0,25.0,21.8,14.3,92,82,68,30.45,30.36,6,1,11,0.20
2013-3-8,37.5,28.2,15.5,29.5,23.4,13.1,94,83,69,30.49,30.29,9,3,14,0.00
2013-3-9,42.5,36.7,31.2,37.8,32.7,26.6,92,85,80,30.29,29.80,10,5,16,0.15
2013-3-10,43.2,41.2,38.0,42.0,39.7,37.0,96,94,81,29.81,29.55,8,3,14,0.83
2013-3-11,38.5,33.6,30.3,37.5,32.1,27.2,97,94,88,29.85,29.58,7,2,14,0.05
2013-3-12,35.6,28.7,23.7,29.9,24.2,19.1,92,83,71,30.10,29.85,11,5,17,0.02
2013-3-13,33.4,26.3,20.7,20.3,17.9,14.6,85,71,46,30.38,30.09,9,4,17,0.00
2013-3-14,35.7,27.5,18.7,31.0,23.9,16.0,93,87,72,30.39,30.08,8,3,15,0.01
2013-3-15,39.7,32.9,27.1,34.5,30.5,25.1,95,91,80,30.10,29.74,6,2,12,0.01
2013-3-16,33.2,30.5,28.5,31.7,26.9,23.5,94,87,77,30.17,29.72,9,5,15,0.00
2013-3-17,33.5,29.2,22.9,26.4,22.3,15.4,84,75,69,30.25,29.98,8,5,15,0.00
2013-3-18,33.6,28.5,19.1,31.8,24.9,13.0,93,86,75,29.98,29.66,11,5,25,0.10
2013-3-19,31.4,22.2,14.1,20.1,14.6,8.4,80,73,59,30.17,29.87,10,6,24,0.00
2013-3-20,24.9,18.2,10.7,16.8,9.5,3.2,78,69,58,30.20,30.10,8,4,19,0.00
2013-3-21,30.1,19.8,9.7,18.0,12.0,5.5,85,72,56,30.14,30.05,5,2,11,0.00
2013-3-22,36.9,25.5,14.5,23.7,17.4,11.9,91,73,49,30.11,30.05,5,1,7,0.00
2013-3-23,41.2,32.6,23.2,26.4,22.7,19.3,88,68,48,30.15,30.03,6,2,11,0.00
2013-3-24,33.9,30.9,28.1,29.8,27.1,24.7,94,86,79,30.06,29.73,10,6,16,0.01
2013-3-25,35.3,30.6,26.6,28.3,25.0,21.0,85,80,70,30.14,29.81,11,7,22,0.05
2013-3-26,39.3,34.1,30.7,28.2,26.2,23.7,83,73,58,30.30,30.14,5,2,10,0.00
2013-3-27,43.3,35.5,26.8,30.9,25.4,21.3,86,68,45,30.37,30.30,5,1,12,0.00
2013-3-28,48.6,36.8,23.9,32.3,26.7,20.9,91,69,46,30.40,30.29,4,1,7,0.00
2013-3-29,54.7,42.7,30.3,36.0,30.1,25.4,85,63,41,30.34,30.22,4,1,9,0.00
2013-3-30,56.2,45.2,32.7,42.9,34.9,24.3,93,68,52,30.24,29.85,14,5,23,0.01
2013-3-31,55.0,43.6,33.2,43.5,36.5,25.8,95,77,52,29.95,29.77,8,3,19,0.00
2013-4-1,39.7,32.1,26.5,26.0,20.9,17.5,81,64,43,30.25,29.95,8,4,14,0.00
2013-4-2,44.0,31.9,20.5,23.5,19.8,16.5,89,63,35,30.35,30.25,6,2,13,0.00
2013-4-3,46.2,34.4,22.3,23.5,20.2,17.5,85,59,35,30.48,30.32,6,2,11,0.00
2013-4-4,59.6,43.5,26.8,38.1,28.6,18.3,78,57,39,30.33,29.98,8,3,18,0.00
2013-4-5,52.3,42.8,32.8,34.7,28.3,17.8,83,59,36,30.24,30.04,8,4,16,0.00
2013-4-6,67.5,50.2,35.0,50.0,35.6,17.6,90,59,38,30.10,29.59,17,8,28,0.26
2013-4-7,60.9,48.8,38.4,46.5,41.3,35.6,91,76,54,29.95,29.66,5,2,12,0.00
2013-4-8,68.1,54.9,41.5,58.4,49.6,36.1,96,83,67,29.91,29.49,13,4,21,0.77
2013-4-9,59.9,48.0,40.2,55.3,45.1,38.0,94,90,82,29.93,29.79,9,5,19,0.10
2013-4-10,40.7,39.1,35.3,39.1,37.4,33.5,95,94,92,30.14,29.76,13,7,22,1.27
2013-4-11,47.8,41.4,36.6,46.2,39.9,34.5,96,94,92,29.76,29.57,12,5,23,0.16
2013-4-12,42.0,37.6,35.1,38.4,33.8,30.9,93,86,77,29.88,29.58,10,5,16,0.00
2013-4-13,46.3,39.3,32.9,35.1,32.1,28.9,90,76,59,29.99,29.88,8,4,17,0.02
2013-4-14,73.4,53.8,37.8,55.1,43.0,32.9,85,69,43,29.99,29.56,18,7,27,0.01
2013-4-15,65.2,51.7,40.7,55.3,46.5,38.2,96,83,51,30.01,29.58,18,4,33,0.36
2013-4-16,52.4,43.9,34.3,41.9,36.7,31.4,93,77,61,30.27,29.97,6,2,12,0.01
2013-4-17,50.4,43.6,40.6,49.6,39.9,34.0,97,87,72,30.28,29.74,10,5,19,3.13
2013-4-18,61.7,50.3,36.9,59.4,48.4,31.7,97,93,81,29.77,29.39,15,7,23,1.61
2013-4-19,37.9,35.6,32.5,32.4,30.3,28.2,86,81,73,29.98,29.50,12,8,19,1.13
2013-4-20,47.3,36.6,27.9,31.1,27.3,23.4,94,71,42,30.40,29.98,5,2,11,0.03
2013-4-21,54.6,43.8,31.8,40.4,33.1,26.9,82,66,52,30.50,30.28,12,6,23,0.03
2013-4-22,65.8,54.4,42.0,46.0,39.7,34.2,75,59,40,30.30,30.00,10,6,18,0.00
2013-4-23,56.9,43.4,37.9,48.5,41.0,34.2,95,91,60,30.04,29.91,10,3,18,0.45
2013-4-24,52.3,42.6,35.0,35.2,32.0,28.8,87,68,43,30.11,29.98,9,4,15,0.01
2013-4-25,53.3,43.1,35.9,37.2,32.0,25.0,91,67,34,30.31,30.06,9,4,17,0.04
2013-4-26,66.6,53.2,37.1,50.9,40.5,28.0,78,62,49,30.31,30.21,16,8,27,0.00
2013-4-27,64.6,55.9,41.4,50.7,46.5,39.5,95,72,52,30.27,29.98,9,2,17,0.00
2013-4-28,69.0,58.7,49.0,55.0,50.6,46.8,93,76,54,29.98,29.79,5,1,8,0.00
2013-4-29,75.7,63.5,48.8,59.4,54.1,47.2,94,73,50,29.88,29.69,11,6,23,0.00
2013-4-30,86.0,73.0,60.9,62.9,57.2,52.5,90,62,34,29.87,29.69,16,9,30,0.00
2013-5-1,83.5,74.0,62.7,58.8,54.9,47.8,76,53,30,30.08,29.87,9,5,18,0.00
2013-5-2,63.5,52.2,41.6,50.7,45.1,39.0,91,77,62,30.22,30.07,9,6,15,0.34
2013-5-3,51.9,44.8,39.0,50.5,43.1,37.1,95,94,92,30.14,29.91,8,5,16,0.50
2013-5-4,70.6,59.3,49.8,59.3,53.5,48.1,94,82,59,30.03,29.91,7,3,14,0.00
2013-5-5,74.6,61.8,47.1,56.2,49.9,45.5,97,69,38,30.03,29.93,6,2,13,0.00
2013-5-6,75.5,62.9,51.8,52.6,45.9,40.7,81,57,29,30.04,29.94,6,2,14,0.00
2013-5-7,80.3,65.9,52.8,50.9,43.5,37.1,78,48,22,30.04,29.93,4,0,9,0.00
2013-5-8,81.7,66.1,49.4,57.1,48.9,44.2,88,58,29,30.01,29.92,3,0,7,0.00
2013-5-9,72.2,63.5,60.7,61.5,57.9,51.5,95,82,64,29.94,29.75,9,2,17,0.27
2013-5-10,61.3,49.1,45.5,60.2,46.3,43.4,96,90,84,30.00,29.75,7,4,15,0.01
2013-5-11,57.7,48.9,39.2,52.0,38.2,27.4,96,70,38,30.10,29.87,12,4,23,0.00
2013-5-12,56.8,44.9,34.3,35.1,30.1,27.5,79,58,34,30.17,30.08,8,3,16,0.00
2013-5-13,67.7,52.4,30.3,40.9,33.5,27.9,93,54,25,30.19,29.95,6,2,12,0.00
2013-5-14,93.7,73.8,55.7,64.0,53.3,39.2,71,51,23,29.95,29.59,11,6,16,0.00
2013-5-15,82.5,73.9,62.7,60.2,52.0,43.6,65,47,26,29.81,29.61,8,2,14,0.00
2013-5-16,83.8,70.5,53.6,56.0,49.0,44.1,78,49,26,29.92,29.81,5,1,12,0.01
2013-5-17,78.1,69.4,58.4,61.9,55.6,47.8,76,62,51,29.99,29.89,6,2,12,0.01
2013-5-18,81.4,69.9,57.3,66.4,59.6,50.8,86,71,53,30.00,29.87,6,2,14,0.00
2013-5-19,88.2,74.4,62.2,69.7,64.2,59.6,93,73,49,29.90,29.66,13,4,18,0.28
2013-5-20,83.2,72.6,63.4,68.0,62.4,59.8,93,72,48,29.75,29.56,13,6,25,0.30
2013-5-21,79.1,69.2,60.2,65.5,60.5,56.5,93,76,52,29.65,29.60,12,6,25,0.01
2013-5-22,71.7,63.6,59.0,63.3,57.6,54.4,93,82,55,29.74,29.58,8,2,14,0.06
2013-5-23,63.0,56.2,46.3,56.2,50.3,42.3,94,81,59,30.27,29.74,9,4,18,0.13
2013-5-24,66.2,51.5,35.7,44.8,39.2,32.9,91,65,36,30.45,30.27,4,2,11,0.00
2013-5-25,56.7,50.7,45.2,48.7,42.6,34.6,90,75,53,30.39,30.27,5,1,12,0.16
2013-5-26,58.9,52.4,44.3,54.9,47.0,37.6,93,82,61,30.28,30.08,6,2,13,0.24
2013-5-27,67.2,60.6,55.4,63.3,58.0,53.4,95,91,86,30.09,29.80,7,3,13,0.06
2013-5-28,78.4,68.2,58.7,72.7,65.2,57.0,96,91,81,29.82,29.65,10,4,19,0.05
2013-5-29,83.5,72.6,62.0,72.5,66.0,59.4,95,81,63,29.89,29.69,8,4,16,0.08
2013-5-30,82.8,72.6,61.7,72.2,66.2,60.0,95,81,62,29.85,29.66,15,7,28,0.73
2013-5-31,74.7,67.4,61.4,68.0,64.1,60.0,96,89,65,29.79,29.65,13,5,22,0.07
2013-6-1,77.4,68.7,62.9,68.7,63.5,58.8,95,84,58,29.72,29.61,10,4,20,0.00
2013-6-2,62.9,56.9,45.0,59.3,50.5,42.8,94,80,66,30.03,29.72,9,3,16,0.00
2013-6-3,69.6,57.3,42.4,52.4,47.0,41.1,97,72,45,30.12,30.00,5,1,9,0.00
2013-6-4,72.5,62.1,48.3,55.5,49.2,43.9,95,65,46,30.15,30.02,6,2,12,0.00
2013-6-5,66.9,59.7,54.6,60.0,54.0,46.9,94,82,62,30.09,29.90,4,2,9,0.33
2013-6-6,66.7,59.2,53.4,59.6,54.8,50.5,95,86,75,29.93,29.85,5,2,9,0.48
2013-6-7,71.9,61.4,52.1,58.3,52.6,47.6,91,74,50,29.95,29.87,5,2,11,0.00
2013-6-8,75.6,63.6,45.9,55.9,49.0,43.7,95,62,38,29.96,29.90,4,1,8,0.00
2013-6-9,80.2,68.0,58.0,63.7,57.1,44.9,92,70,48,29.94,29.75,9,3,15,0.03
2013-6-10,80.1,68.5,56.7,67.3,61.7,55.2,97,80,54,29.85,29.71,3,1,11,0.00
2013-6-11,86.1,73.1,57.3,71.0,63.8,55.9,97,75,47,29.89,29.75,7,1,13,0.00
2013-6-12,90.1,74.7,65.0,76.7,68.9,63.2,94,82,60,29.87,29.55,10,2,18,0.56
2013-6-13,79.9,70.2,60.4,63.7,60.1,56.8,95,72,47,30.00,29.60,6,3,12,0.14
2013-6-14,78.5,67.0,51.9,62.5,57.1,49.4,94,72,51,30.13,29.95,5,2,12,0.00
2013-6-15,82.9,70.6,63.0,71.6,64.7,56.7,93,82,63,30.01,29.80,12,3,19,0.10
2013-6-16,85.5,74.2,64.4,70.2,65.1,60.2,91,75,47,29.90,29.84,8,2,13,0.00
2013-6-17,87.8,75.1,57.8,68.9,60.8,56.1,95,65,37,29.92,29.81,4,1,11,0.00
2013-6-18,77.1,67.0,56.9,63.2,56.7,48.1,83,70,56,30.04,29.86,6,3,15,0.00
2013-6-19,82.4,68.2,52.4,63.8,55.1,46.2,81,64,45,30.11,30.01,4,1,9,0.00
2013-6-20,87.9,74.5,57.7,68.6,60.9,52.2,84,64,42,30.10,29.99,5,1,11,0.00
2013-6-21,79.9,72.6,66.2,70.7,65.9,62.9,94,80,64,30.14,29.89,12,4,18,0.35
2013-6-22,82.8,74.8,66.0,76.0,69.5,63.8,95,84,71,30.10,29.89,8,4,16,1.31
2013-6-23,85.6,73.0,67.3,75.8,68.4,64.7,94,86,65,29.99,29.83,8,3,16,0.58
2013-6-24,82.3,70.0,65.2,73.9,66.9,63.5,96,90,70,30.05,29.84,13,4,28,1.30
2013-6-25,82.9,74.4,65.5,76.8,71.1,64.0,96,90,79,29.95,29.75,10,2,19,0.13
2013-6-26,83.9,75.9,69.9,74.8,71.1,67.2,96,86,71,29.77,29.65,6,2,11,0.04
2013-6-27,88.7,77.9,68.2,75.7,69.9,60.9,97,78,51,29.78,29.67,6,1,16,0.03
2013-6-28,81.2,71.9,64.5,67.1,63.3,60.0,91,75,55,29.72,29.60,8,2,17,0.02
2013-6-29,73.4,66.4,62.4,65.6,62.6,58.3,95,88,67,29.78,29.58,8,2,16,0.49
2013-6-30,78.4,68.7,60.3,66.0,59.7,53.2,90,74,54,29.99,29.77,6,3,15,0.00
2013-7-1,78.3,68.1,55.9,60.6,53.7,49.5,80,62,40,30.06,29.97,8,3,16,0.00
2013-7-2,76.5,65.9,55.0,61.6,53.9,47.3,89,67,37,30.07,30.00,8,2,14,0.00
2013-7-3,75.2,62.8,52.7,64.2,57.2,50.4,94,83,60,30.06,30.00,4,1,6,0.00
2013-7-4,83.3,70.8,55.9,68.6,62.4,54.5,97,77,49,30.07,29.97,5,1,12,0.00
2013-7-5,84.2,73.8,60.4,69.6,63.6,57.9,93,72,51,30.04,29.96,5,2,11,0.00
2013-7-6,85.3,73.3,62.1,71.1,65.6,59.7,94,78,54,30.01,29.91,4,2,11,0.00
2013-7-7,89.5,79.0,68.7,74.7,70.4,66.6,94,76,54,29.96,29.89,5,3,11,0.00
2013-7-8,88.4,78.5,69.7,78.4,72.6,67.9,95,83,67,29.98,29.89,8,4,15,0.43
2013-7-9,85.7,78.0,72.6,79.0,74.4,70.8,95,89,77,29.95,29.81,6,2,13,0.20
2013-7-10,81.5,76.9,73.7,74.6,71.2,65.8,96,84,63,29.92,29.80,8,2,15,0.00
2013-7-11,77.7,67.1,61.4,62.4,60.6,58.7,92,81,55,30.06,30.03,0,0,12,0.00
2013-7-12,83.1,69.2,54.8,64.3,59.0,52.8,94,73,43,30.13,30.04,3,0,7,0.00
2013-7-13,82.8,71.6,57.5,65.8,61.1,55.2,96,72,50,30.13,30.05,4,1,10,0.00
2013-7-14,86.5,76.5,65.0,74.1,68.4,61.0,90,77,59,30.16,30.09,4,1,10,0.00
2013-7-15,89.8,79.2,69.4,79.6,72.5,66.8,92,81,61,30.22,30.15,3,1,6,0.05
2013-7-16,90.4,81.9,73.5,78.4,75.3,71.5,95,81,62,30.25,30.19,5,2,10,0.00
2013-7-17,92.3,82.1,70.8,78.9,74.7,69.3,96,80,59,30.27,30.13,4,1,10,0.00
2013-7-18,92.8,82.7,71.5,80.0,74.9,70.0,96,79,58,30.14,29.90,5,2,12,0.00
2013-7-19,92.6,82.2,69.9,76.7,73.2,67.8,94,76,54,29.90,29.71,10,4,18,0.17
2013-7-20,86.1,75.3,64.2,72.0,66.9,61.8,94,77,54,29.89,29.78,4,1,7,0.00
2013-7-21,84.4,73.3,64.6,73.2,67.0,62.6,95,82,64,29.91,29.81,6,2,13,0.00
2013-7-22,86.0,74.9,62.4,73.7,67.9,60.8,96,80,61,29.85,29.70,7,2,14,0.12
2013-7-23,77.1,69.0,59.6,66.1,61.3,54.9,95,78,54,29.94,29.69,8,3,14,0.02
2013-7-24,74.9,64.0,52.9,58.4,55.1,51.2,95,75,51,30.05,29.94,5,1,10,0.00
2013-7-25,79.9,67.5,52.1,64.6,58.5,50.1,95,74,55,30.08,29.99,5,2,12,0.00
2013-7-26,77.5,67.3,57.7,69.7,62.5,54.6,95,85,57,29.99,29.83,8,3,18,0.19
2013-7-27,64.1,58.1,51.3,55.5,51.4,47.1,92,79,60,29.94,29.88,7,2,14,0.00
2013-7-28,70.0,59.6,51.6,55.6,51.5,47.9,92,76,53,30.03,29.88,6,2,12,0.01
2013-7-29,76.9,62.0,48.1,63.1,55.2,46.5,96,80,55,30.14,30.02,4,1,7,0.00
2013-7-30,66.8,62.8,56.3,64.4,60.5,54.0,96,92,87,30.14,30.03,5,1,9,0.08
2013-7-31,78.9,67.1,63.1,68.9,64.2,61.3,97,91,69,30.03,29.93,4,1,7,0.04
2013-8-1,80.1,67.9,58.0,63.7,59.2,56.0,97,77,45,30.00,29.89,7,1,15,0.00
2013-8-2,84.3,73.9,65.0,71.7,65.1,58.4,92,75,59,29.93,29.82,6,2,12,0.01
2013-8-3,79.2,69.6,58.2,62.4,57.5,53.4,89,68,43,30.10,29.93,6,2,13,0.00
2013-8-4,79.9,67.5,53.9,61.6,55.8,50.7,90,69,41,30.18,30.07,4,1,10,0.00
2013-8-5,72.5,65.7,60.2,66.0,60.8,54.8,96,84,77,30.08,29.84,10,3,17,0.59
2013-8-6,84.2,73.2,66.6,75.5,69.8,65.0,97,90,71,29.87,29.77,6,2,11,0.00
2013-8-7,84.9,76.0,65.8,75.3,69.6,62.5,97,82,57,29.92,29.75,6,2,15,0.00
2013-8-8,79.6,70.2,62.6,67.7,63.7,59.7,95,81,61,30.00,29.92,4,1,11,0.00
2013-8-9,81.2,69.5,57.0,70.7,63.1,55.3,95,81,63,30.03,29.95,4,1,9,0.01
2013-8-10,78.0,67.3,57.4,63.0,58.4,54.9,93,75,48,30.13,30.03,5,1,9,0.00
2013-8-11,82.5,68.1,53.1,67.7,61.1,51.4,96,80,57,30.12,29.99,7,1,12,0.00
2013-8-12,83.0,72.9,64.4,72.2,65.8,58.8,94,79,60,30.01,29.85,4,2,9,0.00
2013-8-13,71.4,62.2,51.9,58.7,52.5,48.8,92,73,46,30.13,29.92,8,2,16,0.00
2013-8-14,75.4,61.1,48.0,57.4,51.8,46.1,95,74,44,30.22,30.11,5,1,10,0.00
2013-8-15,76.4,62.5,52.2,59.9,54.2,49.9,94,77,46,30.16,30.08,3,0,7,0.00
2013-8-16,80.0,63.8,50.2,61.6,55.1,48.4,97,76,45,30.17,30.11,4,1,11,0.00
2013-8-17,80.5,66.5,52.9,61.8,56.1,50.0,93,72,45,30.22,30.12,4,1,10,0.00
2013-8-18,82.2,67.6,53.4,63.1,57.8,51.3,95,74,47,30.19,30.07,4,1,11,0.00
2013-8-19,83.6,69.5,54.6,67.4,61.7,52.9,96,78,52,30.10,29.99,6,1,10,0.00
2013-8-20,85.8,74.3,63.2,70.0,65.8,61.1,95,77,54,30.07,29.98,8,2,14,0.00
2013-8-21,88.1,77.7,67.3,71.4,68.3,64.1,91,74,54,30.03,29.92,9,4,17,0.00
2013-8-22,75.4,70.3,62.8,70.0,67.0,61.1,95,89,82,30.13,29.95,5,2,9,0.41
2013-8-23,82.6,69.9,59.1,67.9,60.2,53.4,97,74,45,30.16,30.08,5,1,12,0.01
2013-8-24,84.5,72.7,59.4,70.8,63.6,52.8,93,74,57,30.22,30.12,5,2,12,0.00
2013-8-25,89.6,77.5,67.3,72.0,67.6,63.4,90,73,49,30.20,30.08,8,4,14,0.00
2013-8-26,92.1,78.0,65.8,75.9,69.7,63.1,91,77,52,30.11,29.94,6,2,13,0.00
2013-8-27,94.5,82.3,70.3,75.8,72.5,68.3,95,74,50,29.96,29.80,9,4,17,0.00
2013-8-28,87.3,79.7,72.3,78.8,72.6,67.7,91,79,72,29.98,29.80,5,2,9,0.00
2013-8-29,87.7,75.1,66.3,73.6,69.4,64.5,96,84,58,30.05,29.93,4,1,9,0.00
2013-8-30,97.3,80.3,68.9,77.8,71.4,66.9,95,78,45,29.94,29.71,6,2,12,0.34
2013-8-31,81.4,73.6,67.1,73.4,69.2,65.3,95,87,72,29.82,29.74,4,2,10,0.00
2013-9-1,88.9,73.7,60.7,75.4,67.2,59.3,97,82,57,29.81,29.69,4,1,9,0.00
2013-9-2,76.6,67.0,55.6,63.8,59.4,52.7,93,78,54,29.98,29.81,6,2,12,0.00
2013-9-3,76.9,62.6,49.9,59.7,54.6,48.3,96,77,48,30.08,29.98,3,0,7,0.00
2013-9-4,84.7,66.4,49.2,67.8,58.1,47.7,97,78,48,30.12,30.02,3,1,6,0.00
2013-9-5,79.0,68.5,60.5,65.8,61.5,52.0,96,80,60,30.20,30.08,5,2,13,0.00
2013-9-6,86.7,71.5,58.4,68.0,60.6,51.7,86,70,51,30.19,29.97,7,2,12,0.00
2013-9-7,90.8,75.5,62.8,71.4,66.1,60.2,94,75,50,29.97,29.84,7,2,15,0.03
2013-9-8,81.6,73.3,68.8,71.7,68.2,65.7,92,84,70,29.97,29.87,5,3,13,0.00
2013-9-9,96.9,80.8,67.8,76.8,71.4,65.8,95,75,47,29.90,29.75,8,4,16,0.00
2013-9-10,95.7,82.8,69.6,71.3,66.7,63.7,83,61,36,29.95,29.83,10,4,20,0.00
2013-9-11,85.7,76.7,66.7,72.3,67.9,64.0,91,75,57,30.00,29.93,5,1,10,0.00
2013-9-12,78.6,68.2,57.0,64.3,56.4,49.6,96,69,42,30.07,29.95,11,3,22,0.00
2013-9-13,69.4,57.4,47.1,49.8,43.6,35.7,88,64,30,30.19,30.07,7,2,15,0.00
2013-9-14,73.0,57.2,39.9,50.5,44.6,38.0,96,66,38,30.18,29.99,5,2,11,0.00
2013-9-15,58.9,56.4,52.9,57.5,52.7,46.0,96,88,64,30.18,29.95,6,2,10,0.92
2013-9-16,68.8,57.5,48.4,54.1,49.6,44.9,95,77,49,30.36,30.17,6,3,14,0.00
2013-9-17,69.5,57.6,45.6,59.1,51.8,43.4,95,82,62,30.32,30.07,7,2,12,0.03
2013-9-18,77.3,68.3,60.9,70.4,62.8,54.9,94,83,74,30.07,29.85,6,3,13,0.04
2013-9-19,92.0,78.1,67.4,73.3,69.4,65.3,94,77,48,29.89,29.69,10,5,21,0.19
2013-9-20,71.0,65.0,54.6,65.6,59.5,51.8,95,83,61,29.84,29.70,6,2,12,0.09
2013-9-21,67.0,56.3,47.5,52.9,49.2,45.3,96,79,54,29.95,29.83,7,2,12,0.00
2013-9-22,69.7,54.4,41.2,51.7,46.6,39.9,96,78,48,30.06,29.94,3,1,9,0.00
2013-9-23,72.0,57.9,45.2,53.5,48.5,43.3,94,73,48,30.09,29.98,4,2,10,0.00
2013-9-24,73.8,60.0,47.6,55.8,50.6,45.0,92,73,47,30.01,29.89,5,2,13,0.00
2013-9-25,76.1,61.1,48.8,56.2,51.3,47.2,96,73,42,29.95,29.88,5,1,11,0.00
2013-9-26,79.8,62.6,49.6,59.4,53.1,47.7,96,74,45,30.04,29.94,5,1,11,0.00
2013-9-27,81.8,66.6,49.7,57.5,51.6,47.8,94,63,33,30.11,29.99,7,2,16,0.00
2013-9-28,80.9,67.3,56.9,66.2,58.5,51.5,94,75,54,30.01,29.83,13,4,26,0.07
2013-9-29,71.4,56.9,45.7,54.9,48.1,44.0,97,76,38,30.07,29.96,4,1,9,0.01
2013-9-30,76.9,58.9,41.8,53.7,46.8,39.9,96,69,37,30.00,29.82,7,2,16,0.00
2013-10-1,83.5,68.3,56.8,65.9,60.6,53.7,96,78,52,29.94,29.83,10,4,18,0.00
2013-10-2,82.4,69.1,55.9,63.5,55.2,44.9,95,66,32,30.06,29.92,5,1,11,0.00
2013-10-3,77.1,69.4,63.6,71.2,66.3,57.0,96,90,78,29.93,29.78,7,2,14,0.23
2013-10-4,75.5,69.8,66.3,71.0,67.1,63.1,96,91,83,29.95,29.84,8,2,13,0.19
2013-10-5,75.0,69.2,58.2,72.3,65.6,47.7,96,89,68,29.88,29.73,8,3,19,0.13
2013-10-6,58.1,48.8,42.2,47.6,41.7,39.5,93,78,57,29.79,29.70,9,3,14,0.00
2013-10-7,71.3,53.7,40.5,50.8,45.6,38.9,96,77,42,30.07,29.78,5,1,12,0.01
2013-10-8,77.5,58.7,41.2,53.4,46.6,39.6,97,69,33,30.17,30.07,7,2,17,0.00
2013-10-9,74.0,59.9,43.9,52.3,46.5,41.5,95,65,34,30.20,30.09,4,1,9,0.00
2013-10-10,75.7,58.9,42.7,57.2,50.3,40.8,95,76,49,30.15,30.00,5,1,14,0.00
2013-10-11,77.3,65.2,54.9,61.0,55.4,51.8,91,72,49,30.02,29.86,10,3,19,0.00
2013-10-12,71.2,61.9,43.2,60.6,51.8,39.3,88,71,38,30.18,29.88,6,3,12,0.00
2013-10-13,64.2,49.0,35.4,45.2,37.3,33.1,96,68,33,30.40,30.18,5,1,11,0.00
2013-10-14,64.6,49.8,35.4,47.2,40.7,32.9,95,73,45,30.41,30.08,6,2,16,0.00
2013-10-15,67.3,55.3,45.8,62.3,49.5,41.2,96,81,65,30.08,29.75,8,3,13,0.36
2013-10-16,51.5,49.2,45.9,46.2,44.8,41.6,93,85,81,29.96,29.83,6,3,12,0.00
2013-10-17,57.9,47.2,37.4,47.0,42.6,35.3,96,85,51,29.94,29.82,4,1,9,0.18
2013-10-18,48.8,43.2,34.7,41.8,38.9,32.9,96,85,71,29.98,29.84,4,1,12,0.00
2013-10-19,53.6,43.1,34.6,40.4,36.8,32.1,92,79,49,29.95,29.79,8,2,21,0.01
2013-10-20,60.2,46.9,32.0,47.8,40.5,30.2,96,80,60,29.87,29.72,6,2,13,0.00
2013-10-21,52.9,41.9,30.5,44.5,31.8,24.8,82,68,47,30.00,29.81,6,2,16,0.00
2013-10-22,36.7,31.4,24.2,35.3,29.4,21.9,95,92,82,30.02,29.94,3,0,4,0.16
2013-10-23,43.1,36.1,29.6,34.9,30.4,27.6,95,80,60,30.07,29.98,4,2,10,0.00
2013-10-24,39.8,35.2,27.3,32.4,27.4,23.4,87,74,57,30.35,30.06,9,2,14,0.00
2013-10-25,52.0,37.6,21.1,35.7,26.8,19.1,93,68,41,30.44,30.06,9,4,18,0.00
2013-10-26,52.4,43.6,29.7,37.4,31.1,25.9,88,62,47,30.11,29.89,10,4,17,0.00
2013-10-27,55.3,39.7,24.5,35.5,29.7,22.5,94,70,42,30.10,29.97,8,2,16,0.00
2013-10-28,57.3,41.7,29.9,44.6,35.4,26.8,90,79,59,30.37,30.06,7,3,16,0.00
2013-10-29,56.9,46.0,36.4,44.5,38.5,32.2,92,76,54,30.36,30.12,5,2,11,0.00
2013-10-30,59.0,52.5,46.3,58.2,51.1,42.8,97,95,84,30.12,29.74,8,2,13,0.76
2013-10-31,61.9,55.8,42.4,61.0,54.5,39.7,97,96,90,29.74,29.26,8,4,15,0.59
2013-11-1,47.0,43.9,39.3,43.9,41.1,37.7,94,90,85,29.77,29.42,6,2,13,0.01
2013-11-2,49.5,40.0,32.6,39.6,35.4,29.5,95,84,61,30.17,29.77,8,2,15,0.00
2013-11-3,51.4,39.7,25.7,39.0,33.0,24.2,96,78,56,30.31,30.16,7,3,12,0.00
2013-11-4,56.8,48.7,41.3,45.2,40.7,35.7,81,74,59,30.23,30.05,11,6,21,0.00
2013-11-5,53.7,51.5,49.6,51.5,48.3,45.0,95,89,80,30.23,29.90,11,4,25,0.14
2013-11-6,55.4,44.1,30.3,54.3,41.1,26.3,96,89,78,30.21,29.76,12,4,21,0.39
2013-11-7,39.7,32.0,25.0,33.6,28.6,23.1,94,87,76,30.29,30.21,6,2,11,0.00
2013-11-8,49.4,38.2,23.1,36.8,30.1,21.4,95,74,49,30.35,29.89,14,5,24,0.01
2013-11-9,57.9,48.2,37.3,44.0,38.6,29.3,82,70,55,30.17,29.85,14,6,24,0.00
2013-11-10,48.5,39.4,28.7,34.1,31.3,25.3,89,73,53,30.39,30.16,5,2,10,0.00
2013-11-11,45.0,35.6,21.0,36.9,29.8,15.8,93,80,70,30.59,30.09,10,5,16,0.05
2013-11-12,31.6,22.6,17.2,22.1,16.3,12.4,84,77,59,30.78,30.59,6,3,14,0.01
2013-11-13,41.5,29.0,15.4,22.8,18.6,12.4,90,67,44,30.66,30.17,14,7,26,0.00
2013-11-14,50.4,39.5,29.7,31.8,26.3,20.1,71,60,46,30.17,29.93,13,6,26,0.00
2013-11-15,53.1,42.1,32.5,37.1,31.6,24.7,82,67,50,29.98,29.89,10,5,16,0.00
2013-11-16,57.8,50.6,39.1,55.1,48.0,35.2,94,91,81,29.90,29.52,15,8,24,0.06
2013-11-17,67.6,52.9,39.9,63.5,50.0,36.1,96,90,72,29.80,29.13,15,7,29,0.49
2013-11-18,42.8,35.9,27.1,36.2,29.7,23.4,88,78,60,30.30,29.80,8,3,16,0.00
2013-11-19,40.4,31.3,20.3,30.2,25.9,18.1,94,81,63,30.39,30.26,6,2,11,0.00
2013-11-20,39.8,35.8,32.2,36.7,31.6,27.5,94,85,75,30.27,30.07,10,5,16,0.27
2013-11-21,45.6,41.7,38.7,42.0,39.2,36.7,94,91,86,30.24,30.09,5,1,9,0.00
2013-11-22,40.0,32.1,22.0,38.0,28.4,19.0,94,86,73,30.52,30.24,10,5,20,0.03
2013-11-23,22.8,18.7,10.4,19.0,11.1,4.7,88,73,53,30.78,30.49,14,5,22,0.00
2013-11-24,26.7,17.3,6.9,12.5,7.9,3.3,87,68,43,30.78,30.41,9,4,15,0.00
2013-11-25,30.8,26.6,19.3,27.4,21.5,12.4,92,81,63,30.42,30.10,12,6,20,0.02
2013-11-26,31.7,25.4,13.4,27.0,19.7,5.2,92,79,66,30.27,30.07,8,4,14,0.01
2013-11-27,24.6,17.3,9.6,15.8,10.0,3.2,80,73,60,30.34,30.26,7,3,14,0.00
2013-11-28,31.2,23.0,13.2,21.0,15.4,10.3,89,73,62,30.54,30.20,7,3,13,0.01
2013-11-29,33.0,23.6,9.7,23.0,16.3,6.9,93,75,56,30.67,30.39,6,2,13,0.00
2013-11-30,49.0,35.9,26.5,35.3,28.5,22.5,90,75,58,30.40,30.06,9,4,17,0.00
2013-12-1,43.6,34.8,26.2,32.2,28.5,24.2,94,78,62,30.15,29.99,5,1,10,0.00
2013-12-2,40.9,35.9,31.6,33.6,31.6,28.9,93,84,73,29.99,29.71,6,2,11,0.03
2013-12-3,46.0,40.8,35.4,45.2,39.6,33.6,97,95,93,29.72,29.64,5,2,10,0.03
2013-12-4,50.9,45.1,29.8,50.1,44.1,27.8,97,96,91,29.74,29.47,11,4,19,0.01
2013-12-5,29.7,21.4,16.7,27.7,16.1,10.7,92,80,71,30.32,29.74,9,5,22,0.00
2013-12-6,17.1,13.3,8.1,11.1,7.2,2.9,81,76,66,30.64,30.31,11,3,11,0.00
2013-12-7,16.9,9.4,3.7,6.6,3.0,-0.2,85,75,56,30.78,30.63,6,1,10,0.00
2013-12-8,21.5,16.9,10.0,19.5,12.5,5.1,93,83,68,30.67,30.01,6,2,14,0.00
2013-12-9,21.0,9.3,-11.1,19.3,5.3,-15.1,93,84,70,30.30,30.00,9,4,14,0.03
2013-12-10,19.2,10.0,-11.2,13.0,4.4,-15.2,87,78,68,30.36,30.06,11,5,16,0.00
2013-12-11,15.4,7.6,-7.0,13.2,2.7,-12.3,91,80,63,30.65,30.32,9,2,14,0.00
2013-12-12,18.8,7.4,-6.8,11.3,2.0,-11.1,89,78,69,30.63,30.27,11,3,23,0.00
2013-12-13,27.6,20.1,6.9,25.8,15.8,4.3,93,84,70,30.28,30.11,6,2,10,0.04
2013-12-14,28.7,24.6,15.1,26.9,22.2,12.4,94,91,86,30.12,29.98,8,4,16,0.00
2013-12-15,18.1,11.0,7.1,15.1,5.9,2.5,88,79,74,30.19,30.01,7,2,13,0.00
2013-12-16,16.3,12.8,8.3,14.4,8.1,1.1,92,82,63,30.20,30.06,4,2,9,0.00
2013-12-17,34.1,23.8,16.3,27.8,19.6,11.6,94,84,69,30.17,30.02,8,4,12,0.15
2013-12-18,35.9,24.0,9.9,27.0,17.5,7.1,91,77,53,30.19,29.84,11,5,20,0.01
2013-12-19,36.8,31.6,24.3,31.6,28.6,22.1,95,89,79,29.93,29.79,6,3,14,0.25
2013-12-20,32.7,28.7,24.9,31.4,27.3,23.4,95,94,94,29.87,29.76,7,4,13,0.10
2013-12-21,29.2,26.7,24.6,27.9,25.4,23.1,96,95,93,29.91,29.65,7,2,12,0.00
2013-12-22,29.6,25.6,19.0,28.3,23.8,16.8,95,93,90,30.19,29.64,7,4,11,0.00
2013-12-23,19.0,2.7,-8.0,16.8,-1.1,-11.8,91,84,78,30.56,30.19,6,3,11,0.00
2013-12-24,17.1,3.3,-14.2,13.4,-0.8,-17.9,89,83,74,30.67,30.38,6,2,11,0.00
2013-12-25,24.6,21.7,16.8,22.3,18.7,12.5,93,88,81,30.38,30.16,9,5,13,0.00
2013-12-26,32.4,23.2,10.9,29.0,19.6,7.8,93,86,78,30.31,30.18,10,4,18,0.05
2013-12-27,36.9,27.3,12.2,31.8,23.9,10.1,95,87,80,30.32,30.12,9,4,15,0.20
2013-12-28,42.6,35.6,28.0,35.1,31.1,25.7,94,84,74,30.12,29.82,10,5,17,0.36
2013-12-29,33.3,22.2,0.0,30.8,18.2,-5.5,94,85,77,30.29,29.79,11,5,18,0.00
2013-12-30,3.9,-0.8,-8.7,0.4,-6.6,-13.9,86,76,64,30.41,30.28,3,1,6,0.00
2013-12-31,9.2,3.2,-8.4,5.9,-0.3,-12.0,88,85,81,30.43,30.28,5,1,10,0.00
2014-1-1,14.3,10.1,6.6,11.4,6.8,3.4,89,86,83,30.34,30.26,8,5,15,0.00
2014-1-2,11.7,6.4,-8.6,6.3,1.8,-12.4,86,81,75,30.51,30.25,11,6,16,0.00